Weather History for Bartlesville, OK

Change the Weather History Date:

Wednesday, November 21, 2012

  Actual Average Record
Temperature  
Mean Temperature 52 °F -  
Max Temperature 75 °F 59 °F 77 °F (1983)
Min Temperature 30 °F 32 °F 14 °F (1964)
Degree Days  
Heating Degree Days 12    
Growing Degree Days 2 (Base 50)    
Moisture  
Dew Point 36 °F    
Average Humidity 62    
Maximum Humidity 100    
Minimum Humidity 21    
Precipitation  
Precipitation 0.00 in - - ()
Sea Level Pressure  
Sea Level Pressure 30.16 in    
Wind  
Wind Speed 3 mph (SSE)    
Max Wind Speed 12 mph    
Max Gust Speed 21 mph    
Visibility 10 miles    
Events      
Averages and records for this station are not official NWS values.
T = Trace of Precipitation, MM = Missing Value Source: NWS Daily Summary

Daily Weather History Graph

Daily Weather History Graph

Search for Another Location

Airport:

Trip Planner

Search our weather history database for the weather conditions in past years. The results will help you decide how hot, cold, wet, or windy it might be!

Date:

Astronomy

Nov. 21, 2012 Rise Set
Actual Time 7:08 AM CST 5:11 PM CST
Civil Twilight 6:40 AM CST 5:39 PM CST
Nautical Twilight 6:09 AM CST 6:10 PM CST
Astronomical Twilight 5:38 AM CST 6:41 PM CST
Moon 1:19 PM CST (11/21) 12:38 AM CST (11/21)
Length of Visible Light 10h 58m
Length of Day
10h 02m
First Quarter, 62% of the Moon is Illuminated
Nov 21
First Quarter
Nov 28
Full
Dec 6
Last Quarter
Dec 13
New
Dec 19
First Quarter

Hourly Weather History & Observations

Time (CST) Temp. Dew Point Humidity Pressure Visibility Wind Dir Wind Speed Gust Speed Precip Events Conditions
12:53 AM 35.1 °F 34.0 °F 96% 30.23 in 10.0 mi Calm Calm - N/A   Clear
1:53 AM 34.0 °F 34.0 °F 100% 30.23 in 10.0 mi Calm Calm - N/A   Clear
2:53 AM 34.0 °F 34.0 °F 100% 30.25 in 10.0 mi Calm Calm - N/A   Clear
3:53 AM 32.0 °F 32.0 °F 100% 30.24 in 10.0 mi Calm Calm - N/A   Clear
4:53 AM 30.0 °F 30.0 °F 100% 30.24 in 9.0 mi Calm Calm - N/A   Clear
5:53 AM 30.9 °F 30.9 °F 100% 30.25 in 10.0 mi Calm Calm - N/A   Clear
6:53 AM 30.9 °F 30.9 °F 100% 30.26 in 7.0 mi Calm Calm - N/A   Clear
7:53 AM 34.0 °F 33.1 °F 96% 30.27 in 9.0 mi Calm Calm - N/A   Clear
8:53 AM 44.1 °F 41.0 °F 89% 30.27 in 10.0 mi Calm Calm - N/A   Clear
10:53 AM 66.0 °F 45.0 °F 47% 30.24 in 10.0 mi South 5.8 mph - N/A   Clear
11:53 AM 71.1 °F 39.9 °F 32% 30.20 in 10.0 mi SSE 9.2 mph - N/A   Clear
12:53 PM 73.9 °F 39.9 °F 29% 30.16 in 10.0 mi SSE 10.4 mph - N/A   Clear
1:53 PM 75.9 °F 37.9 °F 25% 30.13 in 10.0 mi South 10.4 mph 17.3 mph N/A   Clear
2:53 PM 75.9 °F 37.9 °F 25% 30.10 in 10.0 mi SSE 10.4 mph 16.1 mph N/A   Clear
3:53 PM 75.0 °F 32.0 °F 21% 30.09 in 10.0 mi South 11.5 mph 20.7 mph N/A   Clear
4:53 PM 70.0 °F 32.0 °F 25% 30.08 in 10.0 mi SSW 6.9 mph - N/A   Clear
5:53 PM 64.0 °F 33.1 °F 31% 30.08 in 10.0 mi South 3.5 mph - N/A   Clear
6:53 PM 64.0 °F 34.0 °F 33% 30.08 in 10.0 mi SSW 6.9 mph - N/A   Clear
7:53 PM 57.9 °F 35.1 °F 42% 30.08 in 10.0 mi South 6.9 mph - N/A   Clear
8:53 PM 54.0 °F 36.0 °F 51% 30.07 in 10.0 mi SSE 5.8 mph - N/A   Clear
9:53 PM 51.1 °F 37.0 °F 59% 30.06 in 10.0 mi SSE 6.9 mph - N/A   Clear
10:53 PM 51.1 °F 37.9 °F 61% 30.04 in 10.0 mi SE 6.9 mph - N/A   Clear
11:53 PM 55.0 °F 39.0 °F 55% 30.02 in 10.0 mi SSE 6.9 mph - N/A   Clear